QPF
0.06 0.05 0.03 0.02 0.02 0.02 0.01 0.00 0.00 0.00 0.00 0.00 0.00 0.00 0.00 0.00 0.00 0.00 0.00 0.00 0.00 0.00 0.00 0.00 0.00 0.00 0.00 0.00 0.00 0.00 0.00 0.00 0.00 0.00 0.00 0.00 0.00 0.00 0.00 0.00 0.00 0.00 0.00
0.05 0.05 0.04 0.03 0.03 0.03 0.02 0.01 0.00 0.00 0.01 0.00 0.00 0.00 0.00 0.00 0.00 0.00 0.00 0.00 0.00 0.00 0.00 0.00 0.00 0.00 0.00 0.00 0.00 0.00 0.00 0.00 0.00 0.00 0.00 0.00 0.00 0.00 0.00 0.00 0.00 0.00 0.00
0.05 0.04 0.03 0.03 0.02 0.03 0.02 0.02 0.01 0.01 0.01 0.01 0.01 0.00 0.00 0.00 0.00 0.00 0.00 0.00 0.00 0.00 0.00 0.00 0.00 0.00 0.00 0.00 0.00 0.00 0.00 0.00 0.00 0.00 0.00 0.00 0.00 0.00 0.00 0.00 0.00 0.00 0.00
0.05 0.05 0.04 0.03 0.03 0.02 0.03 0.03 0.04 0.04 0.03 0.02 0.01 0.01 0.01 0.01 0.00 0.00 0.00 0.00 0.00 0.00 0.00 0.00 0.00 0.00 0.00 0.00 0.00 0.00 0.00 0.00 0.00 0.00 0.00 0.00 0.00 0.00 0.00 0.00 0.00 0.00 0.00
0.09 0.09 0.08 0.08 0.08 0.08 0.07 0.07 0.08 0.08 0.07 0.05 0.03 0.02 0.02 0.02 0.02 0.01 0.01 0.01 0.00 0.00 0.00 0.00 0.00 0.00 0.00 0.00 0.00 0.00 0.00 0.00 0.00 0.00 0.00 0.00 0.00 0.00 0.00 0.00 0.00 0.00 0.00
0.20 0.22 0.25 0.29 0.30 0.25 0.21 0.20 0.19 0.17 0.14 0.11 0.09 0.07 0.06 0.06 0.06 0.05 0.05 0.05 0.04 0.03 0.02 0.01 0.01 0.01 0.01 0.01 0.01 0.02 0.02 0.02 0.01 0.01 0.00 0.00 0.00 0.00 0.00 0.00 0.00 0.00 0.00
0.37 0.40 0.43 0.45 0.48 0.47 0.44 0.39 0.33 0.32 0.29 0.22 0.19 0.15 0.14 0.13 0.11 0.10 0.08 0.06 0.05 0.03 0.02 0.02 0.02 0.02 0.02 0.02 0.02 0.03 0.03 0.03 0.02 0.02 0.01 0.00 0.00 0.00 0.00 0.00 0.00 0.00 0.00
0.46 0.55 0.60 0.57 0.57 0.56 0.54 0.47 0.43 0.44 0.41 0.34 0.28 0.22 0.19 0.16 0.13 0.10 0.08 0.05 0.04 0.03 0.03 0.02 0.02 0.02 0.02 0.02 0.02 0.02 0.01 0.01 0.02 0.02 0.01 0.01 0.01 0.01 0.01 0.01 0.01 0.00 0.00
0.42 0.44 0.41 0.41 0.46 0.52 0.51 0.49 0.49 0.46 0.38 0.30 0.25 0.22 0.19 0.16 0.13 0.11 0.09 0.06 0.05 0.04 0.05 0.04 0.03 0.02 0.01 0.01 0.02 0.02 0.01 0.01 0.01 0.02 0.01 0.01 0.01 0.01 0.02 0.02 0.01 0.01 0.00
0.34 0.36 0.30 0.28 0.32 0.41 0.46 0.43 0.39 0.37 0.37 0.33 0.27 0.24 0.22 0.20 0.17 0.14 0.11 0.08 0.06 0.05 0.05 0.04 0.04 0.03 0.02 0.02 0.02 0.01 0.01 0.01 0.02 0.02 0.01 0.01 0.01 0.01 0.02 0.02 0.02 0.02 0.01
0.22 0.27 0.29 0.28 0.26 0.30 0.33 0.32 0.32 0.32 0.32 0.31 0.30 0.28 0.25 0.23 0.19 0.15 0.13 0.11 0.09 0.08 0.07 0.05 0.04 0.04 0.03 0.02 0.02 0.01 0.01 0.02 0.02 0.03 0.02 0.02 0.01 0.01 0.01 0.02 0.02 0.02 0.02
0.13 0.14 0.15 0.16 0.19 0.23 0.22 0.22 0.24 0.23 0.21 0.19 0.18 0.16 0.15 0.15 0.15 0.15 0.15 0.13 0.10 0.08 0.07 0.05 0.04 0.03 0.03 0.02 0.02 0.02 0.02 0.02 0.02 0.02 0.02 0.02 0.01 0.01 0.01 0.02 0.02 0.02 0.02
0.06 0.07 0.07 0.07 0.09 0.12 0.13 0.14 0.14 0.12 0.11 0.11 0.09 0.08 0.06 0.06 0.06 0.06 0.06 0.07 0.06 0.04 0.04 0.04 0.03 0.02 0.02 0.01 0.01 0.01 0.01 0.01 0.01 0.01 0.01 0.01 0.02 0.02 0.03 0.03 0.03 0.04 0.05
0.03 0.05 0.06 0.07 0.07 0.07 0.07 0.06 0.06 0.06 0.05 0.04 0.03 0.03 0.03 0.03 0.03 0.02 0.02 0.02 0.02 0.02 0.01 0.01 0.01 0.01 0.01 0.01 0.01 0.01 0.01 0.01 0.01 0.01 0.01 0.01 0.02 0.02 0.03 0.03 0.04 0.05 0.05
0.00 0.01 0.01 0.02 0.03 0.03 0.03 0.03 0.04 0.04 0.03 0.03 0.02 0.01 0.01 0.01 0.01 0.00 0.00 0.00 0.00 0.01 0.01 0.00 0.00 0.00 0.00 0.01 0.01 0.01 0.01 0.01 0.02 0.02 0.02 0.02 0.02 0.03 0.03 0.03 0.04 0.05 0.06
0.00 0.00 0.00 0.00 0.01 0.01 0.01 0.01 0.02 0.02 0.02 0.02 0.02 0.02 0.01 0.01 0.00 0.00 0.00 0.00 0.00 0.00 0.00 0.00 0.00 0.00 0.00 0.00 0.00 0.00 0.00 0.00 0.01 0.01 0.01 0.01 0.02 0.02 0.03 0.03 0.05 0.06 0.05
0.00 0.00 0.00 0.00 0.00 0.00 0.00 0.00 0.00 0.00 0.00 0.00 0.00 0.00 0.00 0.00 0.00 0.00 0.00 0.00 0.00 0.00 0.00 0.00 0.00 0.00 0.00 0.00 0.00 0.00 0.00 0.00 0.00 0.01 0.01 0.01 0.02 0.02 0.03 0.03 0.04 0.05 0.04
0.00 0.00 0.00 0.00 0.00 0.00 0.00 0.00 0.00 0.00 0.00 0.00 0.00 0.00 0.00 0.00 0.00 0.00 0.00 0.00 0.00 0.00 0.00 0.00 0.00 0.00 0.00 0.00 0.00 0.00 0.00 0.00 0.01 0.01 0.01 0.02 0.02 0.03 0.03 0.03 0.04 0.05 0.05
0.00 0.00 0.00 0.00 0.00 0.00 0.00 0.00 0.00 0.00 0.00 0.00 0.00 0.00 0.00 0.00 0.00 0.00 0.00 0.00 0.00 0.00 0.00 0.00 0.00 0.00 0.01 0.01 0.01 0.01 0.01 0.01 0.01 0.01 0.02 0.02 0.03 0.04 0.04 0.05 0.05 0.06 0.06
0.00 0.00 0.00 0.00 0.00 0.00 0.00 0.00 0.00 0.00 0.00 0.00 0.00 0.00 0.00 0.00 0.00 0.00 0.00 0.00 0.00 0.00 0.01 0.01 0.01 0.01 0.01 0.01 0.01 0.01 0.01 0.01 0.02 0.02 0.02 0.03 0.04 0.05 0.06 0.06 0.07 0.08 0.08
0.00 0.00 0.00 0.00 0.00 0.00 0.00 0.00 0.00 0.00 0.00 0.00 0.00 0.00 0.00 0.00 0.00 0.00 0.00 0.00 0.00 0.01 0.01 0.01 0.01 0.01 0.01 0.01 0.01 0.01 0.01 0.01 0.01 0.02 0.02 0.03 0.04 0.05 0.06 0.07 0.09 0.11 0.12
0.00 0.00 0.00 0.00 0.00 0.00 0.00 0.00 0.00 0.00 0.00 0.00 0.00 0.00 0.00 0.01 0.01 0.01 0.01 0.00 0.00 0.01 0.01 0.01 0.01 0.01 0.01 0.01 0.01 0.02 0.02 0.02 0.02 0.02 0.03 0.05 0.06 0.06 0.06 0.07 0.08 0.09 0.10
0.00 0.00 0.00 0.00 0.00 0.00 0.00 0.00 0.00 0.00 0.00 0.00 0.00 0.00 0.00 0.00 0.01 0.01 0.01 0.01 0.01 0.01 0.01 0.01 0.01 0.01 0.01 0.01 0.02 0.03 0.04 0.03 0.03 0.04 0.05 0.06 0.06 0.06 0.06 0.07 0.08 0.08 0.09
0.00 0.00 0.00 0.00 0.00 0.00 0.00 0.00 0.00 0.00 0.00 0.00 0.00 0.00 0.00 0.00 0.01 0.01 0.01 0.01 0.01 0.01 0.01 0.01 0.01 0.01 0.01 0.01 0.02 0.02 0.03 0.03 0.03 0.04 0.04 0.04 0.04 0.04 0.06 0.07 0.08 0.08 0.09
0.00 0.00 0.00 0.00 0.00 0.00 0.00 0.00 0.00 0.00 0.00 0.00 0.00 0.00 0.00 0.00 0.01 0.01 0.01 0.00 0.00 0.00 0.00 0.01 0.01 0.01 0.01 0.01 0.02 0.02 0.03 0.04 0.04 0.04 0.03 0.03 0.04 0.05 0.06 0.08 0.08 0.08 0.06
0.00 0.00 0.00 0.00 0.00 0.00 0.00 0.00 0.00 0.00 0.00 0.00 0.00 0.00 0.00 0.00 0.00 0.00 0.00 0.00 0.00 0.00 0.00 0.01 0.01 0.01 0.01 0.02 0.02 0.03 0.04 0.04 0.04 0.04 0.03 0.03 0.03 0.04 0.04 0.04 0.05 0.06 0.06
MSLP
1012.16 1012.51 1012.91 1013.31 1013.67 1013.97 1014.22 1014.45 1014.67 1014.92 1015.22 1015.57 1015.94 1016.32 1016.67 1016.96 1017.18 1017.35 1017.46 1017.57 1017.68 1017.83 1018.03 1018.27 1018.53 1018.81 1019.06 1019.26 1019.41 1019.50 1019.53 1019.51 1019.46 1019.37 1019.26 1019.12 1018.94 1018.72 1018.46 1018.19 1017.90 1017.64 1017.42
1011.89 1012.24 1012.63 1013.01 1013.34 1013.62 1013.85 1014.05 1014.27 1014.51 1014.80 1015.15 1015.52 1015.91 1016.26 1016.58 1016.82 1017.01 1017.15 1017.26 1017.37 1017.51 1017.67 1017.87 1018.09 1018.32 1018.54 1018.73 1018.89 1019.00 1019.08 1019.13 1019.15 1019.14 1019.10 1019.01 1018.86 1018.66 1018.40 1018.11 1017.79 1017.48 1017.21
1011.66 1012.03 1012.41 1012.76 1013.06 1013.29 1013.48 1013.66 1013.84 1014.07 1014.35 1014.69 1015.08 1015.47 1015.84 1016.18 1016.45 1016.66 1016.81 1016.93 1017.04 1017.16 1017.29 1017.45 1017.63 1017.81 1018.00 1018.17 1018.33 1018.47 1018.58 1018.68 1018.76 1018.81 1018.82 1018.79 1018.68 1018.52 1018.28 1017.99 1017.67 1017.34 1017.04
1011.49 1011.89 1012.27 1012.59 1012.84 1013.01 1013.15 1013.27 1013.42 1013.62 1013.89 1014.23 1014.61 1015.02 1015.41 1015.76 1016.05 1016.28 1016.44 1016.57 1016.66 1016.76 1016.87 1016.99 1017.13 1017.29 1017.45 1017.60 1017.75 1017.90 1018.03 1018.16 1018.28 1018.37 1018.43 1018.43 1018.38 1018.25 1018.05 1017.79 1017.49 1017.17 1016.86
1011.43 1011.85 1012.21 1012.49 1012.68 1012.80 1012.86 1012.93 1013.03 1013.20 1013.45 1013.78 1014.17 1014.58 1014.98 1015.35 1015.65 1015.87 1016.04 1016.15 1016.24 1016.32 1016.40 1016.50 1016.62 1016.75 1016.89 1017.03 1017.17 1017.31 1017.45 1017.58 1017.70 1017.81 1017.89 1017.93 1017.91 1017.83 1017.68 1017.47 1017.21 1016.92 1016.64
1011.49 1011.93 1012.27 1012.50 1012.62 1012.66 1012.65 1012.66 1012.71 1012.85 1013.08 1013.40 1013.79 1014.20 1014.60 1014.96 1015.25 1015.47 1015.62 1015.72 1015.79 1015.84 1015.91 1015.99 1016.09 1016.21 1016.34 1016.47 1016.60 1016.72 1016.83 1016.95 1017.05 1017.15 1017.22 1017.27 1017.28 1017.23 1017.13 1016.98 1016.78 1016.55 1016.30
1011.71 1012.13 1012.43 1012.60 1012.65 1012.62 1012.55 1012.49 1012.51 1012.61 1012.83 1013.14 1013.52 1013.93 1014.32 1014.66 1014.93 1015.12 1015.24 1015.31 1015.35 1015.38 1015.43 1015.50 1015.59 1015.70 1015.82 1015.94 1016.05 1016.14 1016.22 1016.29 1016.35 1016.40 1016.45 1016.48 1016.48 1016.46 1016.40 1016.30 1016.16 1016.00 1015.80
1012.07 1012.46 1012.71 1012.81 1012.79 1012.69 1012.57 1012.47 1012.46 1012.55 1012.75 1013.06 1013.43 1013.82 1014.19 1014.50 1014.73 1014.88 1014.96 1014.98 1014.98 1014.98 1015.01 1015.07 1015.15 1015.26 1015.37 1015.47 1015.55 1015.61 1015.64 1015.65 1015.64 1015.62 1015.61 1015.59 1015.58 1015.55 1015.51 1015.46 1015.37 1015.26 1015.13
1012.55 1012.88 1013.07 1013.11 1013.03 1012.88 1012.72 1012.61 1012.59 1012.68 1012.89 1013.20 1013.56 1013.94 1014.28 1014.54 1014.72 1014.81 1014.83 1014.80 1014.75 1014.72 1014.72 1014.75 1014.83 1014.92 1015.02 1015.10 1015.15 1015.16 1015.12 1015.05 1014.96 1014.86 1014.77 1014.69 1014.62 1014.57 1014.53 1014.49 1014.44 1014.37 1014.28
1013.09 1013.35 1013.48 1013.46 1013.35 1013.17 1013.01 1012.91 1012.90 1013.02 1013.25 1013.57 1013.93 1014.28 1014.59 1014.81 1014.93 1014.96 1014.91 1014.82 1014.71 1014.63 1014.59 1014.59 1014.64 1014.71 1014.79 1014.84 1014.84 1014.80 1014.69 1014.55 1014.37 1014.18 1013.99 1013.83 1013.70 1013.59 1013.52 1013.46 1013.42 1013.37 1013.30
1013.64 1013.84 1013.90 1013.85 1013.71 1013.55 1013.41 1013.34 1013.38 1013.54 1013.81 1014.15 1014.51 1014.85 1015.12 1015.30 1015.36 1015.33 1015.21 1015.04 1014.88 1014.74 1014.64 1014.60 1014.61 1014.64 1014.68 1014.68 1014.64 1014.53 1014.36 1014.14 1013.88 1013.59 1013.32 1013.07 1012.85 1012.68 1012.55 1012.46 1012.38 1012.32 1012.25
1014.16 1014.29 1014.31 1014.24 1014.11 1013.98 1013.89 1013.89 1013.99 1014.21 1014.52 1014.88 1015.26 1015.58 1015.83 1015.96 1015.97 1015.87 1015.68 1015.45 1015.22 1015.01 1014.86 1014.76 1014.71 1014.69 1014.67 1014.62 1014.52 1014.35 1014.12 1013.82 1013.48 1013.12 1012.76 1012.42 1012.13 1011.88 1011.68 1011.51 1011.38 1011.27 1011.16
1014.62 1014.70 1014.69 1014.63 1014.53 1014.45 1014.43 1014.50 1014.68 1014.96 1015.31 1015.71 1016.09 1016.40 1016.62 1016.71 1016.67 1016.51 1016.27 1015.98 1015.68 1015.41 1015.19 1015.02 1014.90 1014.80 1014.72 1014.60 1014.44 1014.21 1013.91 1013.55 1013.15 1012.72 1012.29 1011.88 1011.51 1011.18 1010.90 1010.66 1010.45 1010.27 1010.10
1015.03 1015.07 1015.05 1015.00 1014.95 1014.94 1015.00 1015.15 1015.40 1015.73 1016.12 1016.53 1016.91 1017.21 1017.40 1017.45 1017.37 1017.17 1016.88 1016.54 1016.18 1015.85 1015.55 1015.31 1015.11 1014.94 1014.77 1014.59 1014.35 1014.06 1013.71 1013.29 1012.84 1012.36 1011.88 1011.41 1010.97 1010.56 1010.20 1009.88 1009.58 1009.31 1009.06
1015.39 1015.41 1015.40 1015.38 1015.39 1015.45 1015.58 1015.80 1016.10 1016.48 1016.89 1017.30 1017.66 1017.93 1018.08 1018.10 1017.98 1017.74 1017.42 1017.03 1016.63 1016.24 1015.89 1015.57 1015.30 1015.05 1014.80 1014.53 1014.23 1013.87 1013.46 1013.01 1012.51 1011.99 1011.46 1010.94 1010.45 1009.98 1009.54 1009.13 1008.75 1008.39 1008.05
1015.76 1015.77 1015.77 1015.80 1015.86 1015.98 1016.16 1016.43 1016.77 1017.15 1017.55 1017.93 1018.25 1018.48 1018.59 1018.57 1018.42 1018.16 1017.80 1017.40 1016.96 1016.54 1016.13 1015.76 1015.41 1015.09 1014.76 1014.41 1014.04 1013.62 1013.16 1012.65 1012.11 1011.56 1010.99 1010.43 1009.89 1009.36 1008.86 1008.38 1007.92 1007.48 1007.07
1016.15 1016.16 1016.20 1016.26 1016.36 1016.53 1016.75 1017.04 1017.38 1017.74 1018.10 1018.43 1018.69 1018.86 1018.91 1018.84 1018.66 1018.38 1018.01 1017.59 1017.15 1016.70 1016.26 1015.84 1015.44 1015.05 1014.65 1014.24 1013.79 1013.31 1012.79 1012.24 1011.65 1011.05 1010.45 1009.84 1009.25 1008.68 1008.12 1007.58 1007.06 1006.57 1006.10
1016.60 1016.63 1016.68 1016.77 1016.91 1017.10 1017.34 1017.62 1017.93 1018.24 1018.54 1018.79 1018.97 1019.06 1019.05 1018.94 1018.72 1018.42 1018.04 1017.63 1017.18 1016.73 1016.28 1015.84 1015.40 1014.95 1014.50 1014.02 1013.51 1012.97 1012.39 1011.78 1011.14 1010.49 1009.84 1009.18 1008.54 1007.91 1007.30 1006.72 1006.16 1005.63 1005.13
1017.12 1017.16 1017.24 1017.35 1017.50 1017.70 1017.93 1018.18 1018.44 1018.68 1018.89 1019.05 1019.14 1019.14 1019.06 1018.89 1018.64 1018.32 1017.95 1017.54 1017.11 1016.67 1016.22 1015.77 1015.31 1014.83 1014.33 1013.80 1013.23 1012.63 1011.99 1011.31 1010.62 1009.90 1009.19 1008.48 1007.78 1007.10 1006.45 1005.82 1005.24 1004.69 1004.19
1017.70 1017.75 1017.83 1017.96 1018.11 1018.30 1018.50 1018.71 1018.90 1019.06 1019.17 1019.23 1019.22 1019.14 1018.98 1018.76 1018.48 1018.15 1017.78 1017.39 1016.97 1016.55 1016.12 1015.67 1015.21 1014.71 1014.18 1013.61 1013.00 1012.33 1011.63 1010.89 1010.12 1009.34 1008.56 1007.78 1007.02 1006.29 1005.60 1004.95 1004.35 1003.80 1003.32
1018.32 1018.36 1018.45 1018.57 1018.72 1018.88 1019.04 1019.19 1019.31 1019.39 1019.41 1019.38 1019.28 1019.11 1018.89 1018.62 1018.31 1017.96 1017.60 1017.22 1016.83 1016.43 1016.02 1015.58 1015.12 1014.62 1014.07 1013.47 1012.82 1012.11 1011.35 1010.55 1009.71 1008.86 1008.01 1007.16 1006.34 1005.56 1004.82 1004.15 1003.54 1003.01 1002.56
1018.92 1018.97 1019.05 1019.16 1019.29 1019.42 1019.54 1019.63 1019.68 1019.69 1019.63 1019.52 1019.34 1019.11 1018.83 1018.52 1018.18 1017.82 1017.46 1017.09 1016.72 1016.34 1015.94 1015.52 1015.06 1014.56 1014.01 1013.39 1012.71 1011.96 1011.15 1010.30 1009.41 1008.50 1007.58 1006.67 1005.80 1004.97 1004.20 1003.51 1002.90 1002.38 1001.95
1019.50 1019.54 1019.60 1019.69 1019.79 1019.89 1019.97 1020.01 1020.01 1019.95 1019.83 1019.66 1019.42 1019.14 1018.83 1018.49 1018.13 1017.77 1017.41 1017.04 1016.68 1016.30 1015.91 1015.50 1015.05 1014.54 1013.98 1013.35 1012.65 1011.88 1011.05 1010.16 1009.23 1008.28 1007.31 1006.36 1005.44 1004.58 1003.78 1003.08 1002.46 1001.95 1001.54
1020.01 1020.04 1020.09 1020.15 1020.22 1020.28 1020.32 1020.32 1020.28 1020.18 1020.02 1019.81 1019.55 1019.24 1018.90 1018.55 1018.18 1017.81 1017.44 1017.08 1016.71 1016.33 1015.94 1015.52 1015.06 1014.55 1013.99 1013.35 1012.64 1011.86 1011.02 1010.12 1009.17 1008.19 1007.20 1006.23 1005.29 1004.40 1003.59 1002.87 1002.25 1001.74 1001.33
1020.45 1020.46 1020.49 1020.53 1020.57 1020.60 1020.60 1020.57 1020.50 1020.38 1020.20 1019.98 1019.70 1019.39 1019.06 1018.70 1018.33 1017.96 1017.58 1017.20 1016.82 1016.43 1016.02 1015.58 1015.11 1014.59 1014.01 1013.37 1012.66 1011.88 1011.04 1010.14 1009.20 1008.22 1007.24 1006.26 1005.31 1004.42 1003.60 1002.87 1002.24 1001.71 1001.30
1020.81 1020.82 1020.83 1020.84 1020.86 1020.85 1020.83 1020.78 1020.69 1020.56 1020.38 1020.16 1019.90 1019.60 1019.27 1018.93 1018.57 1018.19 1017.81 1017.41 1017.01 1016.59 1016.15 1015.69 1015.19 1014.64 1014.05 1013.40 1012.69 1011.92 1011.09 1010.21 1009.29 1008.34 1007.37 1006.41 1005.48 1004.59 1003.77 1003.03 1002.38 1001.84 1001.40
Thickness
5738 5737 5736 5734 5733 5732 5731 5730 5729 5728 5727 5725 5723 5721 5718 5715 5713 5710 5708 5706 5704 5702 5701 5698 5697 5696 5694 5692 5691 5689 5686 5683 5679 5681 5684 5687 5688 5687 5687 5686 5686 5685 5685
5739 5736 5734 5733 5732 5730 5729 5729 5728 5726 5726 5724 5722 5719 5716 5714 5711 5708 5705 5704 5701 5698 5697 5695 5693 5692 5689 5688 5686 5684 5682 5680 5677 5675 5678 5680 5682 5683 5682 5681 5682 5682 5682
5738 5735 5732 5731 5729 5728 5727 5727 5726 5724 5722 5720 5718 5715 5713 5710 5708 5705 5703 5701 5698 5696 5694 5691 5689 5687 5684 5682 5681 5679 5678 5678 5674 5671 5671 5673 5675 5676 5676 5676 5677 5677 5678
5736 5733 5730 5729 5728 5727 5725 5724 5722 5720 5717 5715 5713 5711 5709 5707 5704 5702 5699 5697 5695 5693 5691 5688 5686 5684 5681 5679 5677 5675 5674 5672 5670 5667 5666 5667 5667 5669 5668 5667 5668 5670 5671
5732 5729 5728 5727 5725 5723 5721 5719 5717 5716 5714 5711 5708 5706 5704 5701 5699 5697 5694 5692 5689 5687 5686 5684 5683 5681 5680 5677 5675 5672 5669 5666 5664 5661 5661 5660 5661 5660 5660 5661 5661 5663 5664
5726 5723 5723 5721 5719 5717 5714 5712 5711 5709 5707 5705 5702 5700 5697 5697 5695 5692 5689 5686 5684 5682 5680 5678 5677 5676 5675 5673 5672 5670 5667 5663 5659 5656 5655 5654 5656 5656 5655 5655 5654 5653 5653
5720 5716 5715 5713 5711 5711 5709 5706 5704 5701 5700 5699 5696 5693 5690 5689 5688 5686 5684 5681 5678 5676 5675 5672 5671 5671 5669 5667 5666 5665 5663 5661 5659 5655 5651 5652 5652 5652 5649 5647 5647 5647 5649
5713 5711 5709 5707 5706 5704 5702 5700 5698 5695 5693 5691 5688 5684 5681 5681 5679 5678 5676 5673 5671 5669 5668 5666 5664 5662 5661 5658 5657 5656 5655 5655 5652 5650 5649 5650 5649 5648 5645 5644 5643 5641 5642
5702 5700 5700 5700 5697 5695 5693 5692 5690 5688 5686 5684 5681 5676 5673 5671 5670 5669 5667 5663 5661 5660 5658 5657 5655 5653 5651 5648 5646 5645 5645 5646 5646 5644 5644 5644 5643 5641 5638 5633 5631 5628 5631
5691 5691 5690 5689 5686 5683 5682 5680 5680 5679 5677 5674 5670 5667 5664 5661 5660 5659 5657 5653 5650 5648 5647 5646 5644 5642 5641 5638 5635 5634 5634 5636 5635 5635 5635 5634 5633 5632 5630 5625 5624 5621 5622
5681 5680 5678 5677 5675 5673 5670 5669 5668 5667 5664 5660 5657 5654 5652 5650 5649 5647 5645 5642 5639 5637 5636 5634 5633 5631 5629 5627 5625 5624 5624 5624 5623 5622 5623 5623 5623 5623 5622 5620 5617 5615 5614
5670 5669 5666 5665 5665 5663 5659 5656 5656 5654 5649 5646 5643 5640 5638 5637 5636 5635 5634 5631 5628 5625 5623 5622 5621 5620 5618 5616 5615 5615 5613 5611 5609 5609 5609 5609 5610 5611 5611 5611 5609 5608 5608
5657 5655 5654 5652 5650 5649 5646 5643 5641 5639 5636 5632 5630 5626 5623 5622 5621 5621 5619 5618 5615 5612 5611 5610 5608 5607 5605 5604 5603 5602 5600 5597 5595 5593 5593 5594 5595 5596 5596 5595 5595 5594 5595
5644 5642 5641 5639 5637 5636 5634 5632 5629 5626 5623 5620 5617 5613 5610 5608 5606 5605 5603 5602 5600 5598 5596 5595 5594 5593 5591 5589 5587 5585 5583 5580 5578 5577 5577 5578 5577 5577 5576 5575 5575 5576 5576
5631 5629 5628 5626 5625 5623 5621 5618 5616 5614 5612 5608 5603 5600 5596 5593 5591 5589 5587 5585 5583 5581 5579 5577 5576 5574 5571 5569 5567 5565 5563 5561 5559 5558 5557 5557 5557 5557 5557 5556 5555 5556 5557
5619 5616 5615 5613 5612 5610 5607 5603 5601 5599 5597 5594 5589 5586 5582 5579 5577 5575 5573 5570 5568 5566 5562 5558 5555 5553 5551 5549 5547 5545 5543 5541 5539 5538 5537 5536 5536 5536 5536 5536 5535 5536 5539
5607 5604 5603 5601 5599 5597 5594 5590 5585 5582 5580 5577 5573 5569 5566 5563 5561 5559 5556 5554 5551 5548 5542 5539 5536 5533 5532 5530 5527 5525 5524 5522 5520 5518 5516 5516 5515 5516 5516 5518 5518 5520 5522
5596 5594 5591 5588 5586 5582 5579 5575 5571 5566 5562 5558 5556 5552 5550 5547 5544 5541 5538 5536 5532 5528 5523 5520 5518 5515 5513 5511 5508 5506 5504 5503 5501 5500 5499 5498 5498 5499 5500 5502 5504 5506 5509
5584 5581 5578 5575 5571 5567 5563 5559 5554 5549 5544 5539 5536 5534 5531 5529 5526 5523 5520 5516 5512 5509 5505 5502 5500 5498 5496 5494 5492 5489 5487 5486 5485 5484 5484 5484 5485 5485 5487 5489 5491 5494 5497
5571 5570 5566 5560 5555 5550 5546 5541 5535 5530 5525 5521 5517 5513 5511 5509 5505 5503 5500 5497 5494 5491 5489 5487 5484 5482 5481 5479 5477 5475 5474 5473 5473 5473 5474 5474 5474 5474 5475 5478 5481 5484 5489
5557 5554 5551 5544 5538 5533 5528 5522 5517 5512 5507 5502 5498 5496 5494 5490 5487 5485 5482 5481 5479 5477 5475 5473 5471 5469 5468 5467 5466 5465 5464 5464 5465 5465 5465 5465 5465 5465 5466 5469 5472 5477 5481
5543 5538 5533 5527 5522 5516 5510 5505 5500 5495 5490 5486 5483 5480 5479 5475 5473 5471 5469 5467 5466 5464 5462 5461 5459 5458 5457 5457 5456 5456 5457 5457 5458 5458 5458 5458 5458 5458 5460 5463 5467 5471 5476
5528 5523 5516 5511 5505 5500 5494 5489 5484 5479 5475 5472 5469 5466 5464 5462 5460 5458 5456 5455 5454 5454 5453 5452 5451 5450 5449 5449 5449 5448 5449 5450 5450 5450 5451 5453 5454 5455 5457 5460 5464 5468 5473
5512 5507 5501 5495 5489 5484 5478 5473 5469 5465 5462 5459 5456 5454 5452 5450 5448 5447 5446 5445 5445 5445 5444 5444 5443 5443 5442 5442 5442 5442 5443 5443 5443 5445 5447 5449 5451 5454 5456 5459 5463 5467 5471
5497 5491 5485 5480 5474 5469 5464 5459 5455 5452 5449 5447 5445 5443 5441 5440 5438 5437 5437 5436 5436 5436 5436 5437 5437 5436 5436 5436 5437 5437 5438 5440 5442 5443 5445 5447 5450 5453 5456 5460 5463 5467 5470
5482 5476 5471 5465 5460 5455 5451 5447 5444 5441 5438 5436 5434 5432 5431 5429 5428 5428 5428 5428 5428 5429 5429 5430 5431 5431 5431 5432 5433 5434 5436 5439 5441 5443 5444 5448 5451 5454 5457 5461 5464 5467 5470